Weather History for Glendive, MT

Change the Weather History Date:

Friday, August 30, 2013

  Actual Average Record
Temperature  
Mean Temperature 76 °F -  
Max Temperature 93 °F 80 °F 96 °F (2006)
Min Temperature 60 °F 52 °F 37 °F (2003)
Cooling Degree Days 12    
Growing Degree Days 26 (Base 50)    
Moisture  
Dew Point 57 °F    
Average Humidity 55    
Maximum Humidity 88    
Minimum Humidity 26    
Precipitation  
Precipitation 0.00 in - - ()
Sea Level Pressure  
Sea Level Pressure 29.95 in    
Wind  
Wind Speed 4 mph (West)    
Max Wind Speed 12 mph    
Max Gust Speed 20 mph    
Visibility 10 miles    
Events      
Averages and records for this station are not official NWS values.
T = Trace of Precipitation, MM = Missing Value Source: NWS Daily Summary

Daily Weather History Graph

Daily Weather History Graph

Search for Another Location

Airport:

Trip Planner

Search our weather history database for the weather conditions in past years. The results will help you decide how hot, cold, wet, or windy it might be!

Date:

Astronomy

Aug. 30, 2013 Rise Set
Actual Time 6:16 AM MDT 7:42 PM MDT
Civil Twilight 5:44 AM MDT 8:13 PM MDT
Nautical Twilight 5:05 AM MDT 8:52 PM MDT
Astronomical Twilight 4:24 AM MDT 9:33 PM MDT
Moon 12:44 AM MDT (8/30) 4:11 PM MDT (8/30)
Length of Visible Light 14h 29m
Length of Day
13h 26m
Waning Crescent, 28% of the Moon is Illuminated
Aug 30
Waning Crescent
Sep 5
New
Sep 12
First Quarter
Sep 19
Full
Sep 26
Last Quarter

Hourly Weather History & Observations

Time (MDT) Temp. Heat Index Dew Point Humidity Pressure Visibility Wind Dir Wind Speed Gust Speed Precip Events Conditions
12:35 AM 68.0 °F - 59.0 °F 73% 30.02 in 10.0 mi ENE 3.5 mph - N/A   Clear
12:55 AM 66.2 °F - 57.2 °F 73% 30.02 in 10.0 mi Calm Calm - N/A   Clear
1:15 AM 64.4 °F - 57.2 °F 77% 30.02 in 10.0 mi Calm Calm - N/A   Clear
1:35 AM 62.6 °F - 57.2 °F 82% 30.02 in 10.0 mi Calm Calm - N/A   Clear
1:55 AM 62.6 °F - 57.2 °F 82% 30.02 in 10.0 mi Calm Calm - N/A   Clear
2:15 AM 62.6 °F - 57.2 °F 82% 30.02 in 10.0 mi SW 3.5 mph - N/A   Clear
2:55 AM 62.6 °F - 57.2 °F 82% 30.02 in 10.0 mi SSW 3.5 mph - N/A   Clear
3:15 AM 62.6 °F - 57.2 °F 82% 30.01 in 10.0 mi South 4.6 mph - N/A   Clear
3:35 AM 62.6 °F - 57.2 °F 82% 30.01 in 10.0 mi SSW 4.6 mph - N/A   Clear
3:55 AM 62.6 °F - 57.2 °F 82% 30.00 in 10.0 mi SSW 5.8 mph - N/A   Clear
4:15 AM 64.4 °F - 57.2 °F 77% 30.01 in 10.0 mi Calm Calm - N/A   Clear
4:35 AM 62.6 °F - 57.2 °F 82% 30.00 in 10.0 mi Calm Calm - N/A   Clear
5:15 AM 62.6 °F - 57.2 °F 82% 30.00 in 10.0 mi Calm Calm - N/A   Clear
5:55 AM 64.4 °F - 57.2 °F 77% 29.99 in 10.0 mi SSE 4.6 mph - N/A   Clear
6:35 AM 60.8 °F - 57.2 °F 88% 30.00 in 10.0 mi Calm Calm - N/A   Clear
6:56 AM 60.8 °F - 55.4 °F 82% 29.99 in 10.0 mi ENE 3.5 mph - N/A   Clear
7:15 AM 62.6 °F - 59.0 °F 88% 30.00 in 10.0 mi Calm Calm - N/A   Clear
7:35 AM 68.0 °F - 60.8 °F 78% 30.00 in 10.0 mi SSE 3.5 mph - N/A   Clear
7:55 AM 68.0 °F - 60.8 °F 78% 30.00 in 10.0 mi SSE 5.8 mph - N/A   Clear
8:15 AM 69.8 °F - 60.8 °F 73% 29.99 in 10.0 mi South 6.9 mph - N/A   Clear
8:35 AM 71.6 °F - 60.8 °F 69% 30.00 in 10.0 mi SSW 8.1 mph - N/A   Clear
8:55 AM 73.4 °F - 60.8 °F 65% 30.00 in 10.0 mi SSW 8.1 mph - N/A   Clear
9:15 AM 77.0 °F - 60.8 °F 57% 30.00 in 10.0 mi SW 9.2 mph - N/A   Clear
9:35 AM 78.8 °F - 60.8 °F 54% 29.99 in 10.0 mi SW 10.4 mph - N/A   Clear
9:55 AM 80.6 °F 81.5 °F 60.8 °F 51% 29.99 in 10.0 mi SSW 8.1 mph - N/A   Clear
10:15 AM 82.4 °F 82.5 °F 59.0 °F 45% 29.99 in 10.0 mi SSW 11.5 mph - N/A   Clear
10:35 AM 82.4 °F 82.9 °F 60.8 °F 48% 29.99 in 10.0 mi SSW 8.1 mph - N/A   Clear
10:55 AM 84.2 °F 83.5 °F 57.2 °F 40% 29.99 in 10.0 mi South 6.9 mph - N/A   Clear
11:35 AM 86.0 °F 84.9 °F 57.2 °F 37% 29.97 in 10.0 mi SSW 5.8 mph - N/A   Clear
11:55 AM 87.8 °F 86.5 °F 57.2 °F 35% 29.97 in 10.0 mi South 8.1 mph - N/A   Clear
12:15 PM 89.6 °F 87.7 °F 55.4 °F 31% 29.96 in 10.0 mi WSW 4.6 mph - N/A   Clear
12:35 PM 89.6 °F 87.7 °F 55.4 °F 31% 29.95 in 10.0 mi Calm Calm - N/A   Clear
12:55 PM 91.4 °F 89.9 °F 57.2 °F 31% 29.95 in 10.0 mi North 5.8 mph 19.6 mph N/A   Clear
1:15 PM 91.4 °F 90.7 °F 59.0 °F 34% 29.94 in 10.0 mi East 11.5 mph 16.1 mph N/A   Clear
1:35 PM 89.6 °F 88.9 °F 59.0 °F 36% 29.94 in 10.0 mi Calm Calm - N/A   Clear
1:55 PM 91.4 °F 89.4 °F 55.4 °F 29% 29.93 in 10.0 mi NNW 3.5 mph - N/A   Clear
2:15 PM 91.4 °F 89.9 °F 57.2 °F 31% 29.93 in 10.0 mi Calm Calm - N/A   Clear
2:35 PM 93.2 °F 90.8 °F 53.6 °F 26% 29.92 in 10.0 mi Calm Calm - N/A   Clear
2:55 PM 93.2 °F 90.8 °F 53.6 °F 26% 29.91 in 10.0 mi WNW 6.9 mph - N/A   Clear
3:35 PM 91.4 °F 89.1 °F 53.6 °F 28% 29.90 in 10.0 mi WNW 9.2 mph - N/A   Clear
4:15 PM 91.4 °F 89.4 °F 55.4 °F 29% 29.89 in 9.0 mi NNE 3.5 mph - N/A   Clear
4:35 PM 93.2 °F 90.8 °F 53.6 °F 26% 29.88 in 10.0 mi NW 8.1 mph - N/A   Clear
4:55 PM 91.4 °F 89.1 °F 53.6 °F 28% 29.88 in 10.0 mi NNW 9.2 mph - N/A   Clear
5:15 PM 91.4 °F 89.1 °F 53.6 °F 28% 29.88 in 10.0 mi NNW 9.2 mph - N/A   Clear
5:55 PM 89.6 °F 87.3 °F 53.6 °F 29% 29.88 in 10.0 mi West 5.8 mph - N/A   Clear
6:15 PM 87.8 °F 86.1 °F 55.4 °F 33% 29.88 in 10.0 mi NW 4.6 mph - N/A   Clear
6:55 PM 84.2 °F 83.0 °F 55.4 °F 37% 29.89 in 10.0 mi WNW 6.9 mph - N/A   Clear
7:15 PM 82.4 °F 81.7 °F 55.4 °F 39% 29.89 in 10.0 mi WNW 6.9 mph - N/A   Clear
7:35 PM 80.6 °F 80.5 °F 55.4 °F 42% 29.89 in 10.0 mi WNW 6.9 mph - N/A   Clear
7:55 PM 80.6 °F 80.5 °F 55.4 °F 42% 29.86 in 10.0 mi SSW 3.5 mph - N/A   Clear
8:15 PM 77.0 °F - 55.4 °F 47% 29.87 in 10.0 mi NNW 4.6 mph - N/A   Clear
8:35 PM 78.8 °F - 55.4 °F 44% 29.86 in 10.0 mi Calm Calm - N/A   Clear
8:55 PM 75.2 °F - 55.4 °F 50% 29.87 in 10.0 mi NNW 6.9 mph - N/A   Clear
9:35 PM 69.8 °F - 53.6 °F 56% 29.86 in 10.0 mi Calm Calm - N/A   Clear
9:55 PM 73.4 °F - 55.4 °F 53% 29.86 in 10.0 mi NNW 4.6 mph - N/A   Clear
10:15 PM 66.2 °F - 53.6 °F 64% 29.87 in 10.0 mi NW 8.1 mph - N/A   Clear
10:35 PM 69.8 °F - 55.4 °F 60% 29.86 in 10.0 mi NNW 8.1 mph - N/A   Clear
10:55 PM 68.0 °F - 55.4 °F 64% 29.87 in 10.0 mi NNW 8.1 mph - N/A   Clear
11:15 PM 69.8 °F - 57.2 °F 64% 29.87 in 10.0 mi WNW 9.2 mph - N/A   Clear
11:35 PM 66.2 °F - 55.4 °F 68% 29.87 in 10.0 mi NNE 4.6 mph - N/A   Clear
11:55 PM 69.8 °F - 57.2 °F 64% 29.88 in 10.0 mi Calm Calm - N/A   Clear